Regional Weather Roundup
Issued by NWS

Home | Current Version | Previous Version | Text Only | Print | Product List | Glossary On
Versions: 1 2 3 4 5 6 7 8 9 10 11 12 13 14 15 16 17 18 19 20 21 22 23 24 25 26 27 28 29 30 31 32 33 34 35 36 37 38 39 40 41 42 43 44 45 46 47 48 49 50
000
ASUS44 KFWD 290915
RWRTX
NORTH TEXAS HOURLY WEATHER ROUNDUP
NATIONAL WEATHER SERVICE FORT WORTH TX
400 AM CDT WED MAR 29 2017

NOTE: "FAIR" INDICATES FEW OR NO CLOUDS BELOW 12,000 FEET WITH NO
SIGNIFICANT WEATHER AND/OR OBSTRUCTIONS TO VISIBILITY.

TXZ118-119-291000-
DALLAS/FORT WORTH METROPLEX

CITY           SKY/WX    TMP DP  RH WIND       PRES   REMARKS
DFW AIRPORT    LGT RAIN  63  60  90 NW10      29.71F
DALLAS LOVE    LGT RAIN  62  59  90 NW8       29.73F
FTW MEACHAM    LGT RAIN  61  57  87 NW7       29.71F
DAL-EXECUTIVE  LGT RAIN  61  59  93 NW9       29.72F
FTW-ALLIANCE   LGT RAIN  60  58  92 NW8G17    29.70F
FTW-NAS-JRB    LGT RAIN  62  58  86 N5        29.71F
ARLINGTON        N/A    N/A N/A N/A MISG      29.72F
GRAND PRAIRIE  CLOUDY    59  59 100 CALM      29.74F
ADDISON        RAIN      60  58  92 NW8       29.75F
MESQUITE       CLOUDY    59  58  95 W9G16     29.76F
LANCASTER      RAIN      59  57  92 W6        29.77F
$$

TXZ091>094-102>105-117-120-121-131>134-291000-
NORTH CENTRAL TEXAS

CITY           SKY/WX    TMP DP  RH WIND       PRES   REMARKS
SHRMAN/DENISON TSTM      60  58  94 W20G29    29.76R
GAINESVILLE    RAIN      56  54  93 NW12G17   29.75F
BOWIE          LGT RAIN  56  56  99 N6        29.70F
BRIDGEPORT     LGT RAIN  58  58 100 NE13      29.68F
DECATUR        CLOUDY    57  56  96 N8G20     29.68F
DENTON         LGT RAIN  60  59  96 NW13      29.69F
MCKINNEY       RAIN      61  60  97 NW13G21     N/A
BONHAM         RAIN      59  57  94 W24G49    29.74R FOG
GREENVILLE     HVY RAIN  59  55  88 W10       29.77R
ROCKWALL       CLOUDY    58  58 100 NW10      29.75F
TERRELL        LGT RAIN  60  56  86 NW8       29.75F
WAXAHACHIE     RAIN      59  59 100 NW5       29.76F
CLEBURNE       RAIN      57  57 100 E12       29.71F
GRANBURY       LGT RAIN  60  58  94 E9        29.64F
$$

TXZ083>090-098>101-113>116-127>130-139>142-154-155-291000-
WESTERN NORTH TEXAS

CITY           SKY/WX    TMP DP  RH WIND       PRES   REMARKS
WICHITA FALLS  LGT RAIN  53  51  93 NE25G31   29.61F
WF-KICKAPOO    LGT RAIN  53  52  97 NE21G31   29.64F
ABILENE        CLOUDY    54  32  43 SW13      29.69F
ABILENE-DYESS  CLOUDY    55  55  98 W13       29.67F
GRAHAM         CLOUDY    57  57 100 N6        29.65F
BRECKENRIDGE   MOCLDY    58  57  97 E5        29.67F
RANGER         CLOUDY    54  54 100 NE3       29.68F
MINERAL WELLS  LGT RAIN  58  56  93 NE7       29.64F
STEPHENVILLE   MOCLDY    58  55  89 W3        29.70F
COMANCHE       MOCLDY    58  55  88 SW10      29.67F
BROWNWOOD      CLOUDY    57  55  94 SW7       29.68F
COLEMAN        CLOUDY    55  54  94 SW9       29.70F
$$

TXZ143>147-156>162-174-175-291000-
CENTRAL TEXAS

CITY           SKY/WX    TMP DP  RH WIND       PRES   REMARKS
WACO           CLOUDY    60  58  92 VRB5      29.75F FOG
WACO-MCGREGOR  RAIN      60  58  92 NW3       29.74F
HILLSBORO      TSTM      59  58  94 N7        29.73F
CORSICANA      TSTM      60  58  92 N7        29.79S FOG
MEXIA          TSTM      58  58  98 S9        29.84R
HEARNE         CLOUDY    62  62 100 SW6G17    29.84R
CAMERON        RAIN      61  60  97 CALM      29.79F
TEMPLE         TSTM      60  58  92 NW7G18    29.73F
KILLEEN        TSTM      63  55  77 S13G20    29.66F
KILLEEN-SKYLRK TSTM      64  57  77 SW17G24   29.67F
FORT HOOD      LGT RAIN  62  56  79 SW20G31   29.64F
GATESVILLE     LGT RAIN  61  57  88 S5        29.67F
HAMILTON       MOCLDY    58  58 100 S8        29.69S
LAMPASAS       CLOUDY    60  58  92 W6        29.67F
$$

TXZ095>097-106>112-122>126-135>138-148>153-164>167-291000-
EAST TEXAS

CITY           SKY/WX    TMP DP  RH WIND       PRES   REMARKS
PARIS          PTCLDY    68  61  77 SE16      29.73S
SULPHUR SPRNGS DRIZZLE   70  64  81 SE12G21   29.73F
MOUNT PLEASANT MOCLDY    70  62  76 S8        29.79R
GILMER         CLOUDY    69  64  83 SE6       29.78R
MINEOLA        LGT RAIN  70  64  83 SE8       29.73F
TYLER          CLOUDY    71  66  84 S13       29.76R
LONGVIEW       CLOUDY    70  66  87 S3        29.77R
MARSHALL       CLOUDY    67  63  84 SE6       29.77F
ATHENS         DRIZZLE   70  66  88 S8        29.76R
PALESTINE      CLOUDY    73  67  83 SE5       29.79R
JACKSONVILLE   CLOUDY    71  65  83 S8        29.80R
HENDERSON      CLOUDY    70  65  83 SW3       29.79R
NACOGDOCHES    CLOUDY    72  64  78 S9        29.73R
LUFKIN         CLOUDY    72  65  78 SE10G18   29.73F
$$

SUPPLEMENTAL OBSERVATIONS (CENTRAL)

CITY           SKY/WX    TMP DP  RH WIND       PRES   REMARKS
DENISON DAM      N/A     59  57  94 W17         N/A
PAT MAYSE LAKE   N/A     70  64  83 E15         N/A
GREENVILLE       N/A     59  54  82 W21G44      N/A
CEDAR HILL       N/A     61  57  88 NW2         N/A
ATHENS           N/A     70  63  78 SW8         N/A
LAKE LIMESTONE   N/A     61  55  82 SW3G26      N/A
MCGREGOR         N/A     61  59  94 W7G18       N/A
TEMPLE           N/A     61  59  94 NE8         N/A
$$

SUPPLEMENTAL OBSERVATIONS (WEST)

CITY           SKY/WX    TMP DP  RH WIND       PRES   REMARKS
MILLERS CREEK    N/A     55  54  94 E8G18       N/A
POSSUM KINGDOM   N/A     57  55  94 E6G20       N/A
GRANBURY         N/A     59  55  88 E10G21      N/A
COMANCHE         N/A     57  52  82 SW13        N/A
HAMBY            N/A     55  52  88 S3          N/A
IVIE RESERVOIR   N/A     55  50  82 SW12        N/A
COLORADO BEND    N/A     57  54  88 W6          N/A
$$

SUPPLEMENTAL OBSERVATIONS (EAST)

CITY           SKY/WX    TMP DP  RH WIND       PRES   REMARKS
CLARKSVILLE      N/A     70  63  78 SE10        N/A
TEXARKANA        N/A     68  63  83 SE7         N/A
LINDEN           N/A     68  63  83 SE6         N/A
CADDO LAKE       N/A    N/A N/A N/A SE6         N/A
GILMER           N/A     70  63  78 S6G14       N/A
HENDERSON        N/A     72  66  83 SW7         N/A
N SABINE NF      N/A     70  64  83 MISG        N/A
S SABINE NF      N/A     70  64  83 W3          N/A
$$

SUPPLEMENTAL OBSERVATIONS ARE A COLLECTION OF AUTOMATED INSTRUMENTS
THAT ARE MAINTAINED BY A VARIETY OF FEDERAL AND STATE AGENCIES.
CERTAIN ELEMENTS...SUCH AS HUMIDITY VALUES AND SUSTAINED WIND
SPEEDS...MAY BE APPROXIMATED.





USA.gov is the U.S. government's official web portal to all federal, state and local government web resources and services.